���t,����z,�����Y���z
20170829,9999.00,600
20170830,10073.00,604
20170831,10147.00,609
20170901,10168.00,610
20170904,10071.00,604
20170905,10014.00,601
20170906,9994.00,600
20170907,10014.00,601
20170908,9953.00,597
20170911,10092.00,606
20170912,10210.00,613
20170913,10254.00,615
20170914,10228.00,614
20170915,10281.00,617
20170919,10479.00,629
20170920,10483.00,629
20170921,10505.00,630
20170922,10479.00,629
20170925,10531.00,632
20170926,10492.00,629
20170927,10534.00,632
20170928,10581.00,635
20170929,10576.00,635
20171002,10599.00,636
20171003,10708.00,642
20171004,10716.00,643
20171005,10717.00,643
20171006,10750.00,645
20171010,10817.00,649
20171011,10846.00,651
20171012,10884.00,653
20171013,10989.00,659
20171016,11042.00,662
20171017,11082.00,665
20171018,11094.00,666
20171019,11141.00,668
20171020,11144.00,669
20171023,11271.00,676
20171024,11325.00,679
20171025,11278.00,677
20171026,11295.00,678
20171027,11434.00,686
20171030,11433.00,686
20171031,11429.00,686
20171101,11646.00,699
20171102,11702.00,702
20171106,11715.00,703
20171107,11917.00,715
20171108,11903.00,714
20171109,11880.00,713
20171110,11770.00,706
20171113,11618.00,697
20171114,11628.00,698
20171115,11443.00,687
20171116,11614.00,697
20171117,11637.00,698
20171120,11562.00,694
20171121,11645.00,699
20171122,11701.00,702
20171124,11714.00,703
20171127,11684.00,701
20171128,11679.00,701
20171129,11738.00,704
20171130,11805.00,708
20171201,11847.00,711
20171204,11792.00,708
20171205,11747.00,705
20171206,11519.00,694
20171207,11686.00,705
20171208,11847.00,715
20171211,11912.00,715
20171212,11876.00,713
20171213,11817.00,710
20171214,11784.00,708
20171215,11712.00,708
20171218,11893.00,720
20171219,11872.00,719
20171220,11887.00,715
20171221,11872.00,714
20171222,11892.00,715
20171225,11910.00,716
20171226,11887.00,715
20171227,11913.00,717
20171228,11848.00,713
20171229,11837.00,713
20180104,12216.00,736
20180105,12330.00,745
20180109,12401.00,752
20180110,12369.00,749
20180111,12323.00,749
20180112,12297.00,750
20180115,12330.00,756
20180116,12452.00,761
20180117,12405.00,755
20180118,12355.00,757
20180119,12377.00,757
20180122,12380.00,763
20180123,12541.00,786
20180124,12444.00,766
20180125,12305.00,764
20180126,12286.00,766
20180129,12284.00,767
20180130,12107.00,757
20180131,12009.00,763
20180201,12206.00,781
20180202,12105.00,766
20180205,11790.00,757
20180206,11227.00,726
20180207,11249.00,740
20180208,11386.00,753
20180209,11116.00,735
20180213,11037.00,734
20180214,11002.00,733
20180215,11158.00,745
20180216,11295.00,755
20180219,11509.00,769
20180220,11398.00,747
20180221,11421.00,753
20180222,11292.00,746
20180223,11383.00,756
20180226,11529.00,765
20180227,11644.00,766
20180228,11481.00,756
20180301,11290.00,747
20180302,11012.00,736
20180305,10940.00,735
20180306,11143.00,750
20180307,11045.00,743
20180308,11113.00,749
20180309,11172.00,753
20180312,11359.00,766
20180313,11425.00,771
20180314,11326.00,758
20180315,11340.00,760
20180316,11265.00,757
20180319,11166.00,751
20180320,11115.00,751
20180322,11224.00,762
20180323,10711.00,727
20180326,10785.00,740
20180327,11081.00,767
20180328,11021.00,763
20180329,11095.00,768
20180330,11243.00,779
20180402,11213.00,773
20180403,11161.00,773
20180404,11174.00,776
20180405,11342.00,788
20180406,11311.00,786
20180409,11366.00,790
20180410,11429.00,794
20180411,11361.00,791
20180412,11350.00,791
20180413,11415.00,798
20180416,11443.00,797
20180417,11445.00,800
20180418,11613.00,801
20180419,11628.00,802
20180420,11610.00,794
20180423,11573.00,794
20180424,11672.00,801
20180425,11639.00,797
20180426,11694.00,802
20180427,11779.00,808
20180501,11792.00,807
20180502,11775.00,810
20180507,11770.00,807
20180508,11795.00,812
20180509,11743.00,809
20180510,11789.00,814
20180511,11922.00,822
20180514,11981.00,826
20180515,11957.00,825
20180516,11907.00,823
20180517,11968.00,828
20180518,12016.00,832
20180521,12054.00,834
20180522,12031.00,840
20180523,11894.00,831
20180524,11754.00,825
20180525,11763.00,837
20180528,11781.00,838
20180529,11707.00,834
20180530,11539.00,822
20180531,11632.00,831
20180601,11625.00,830
20180604,11781.00,848
20180605,11810.00,851
20180606,11857.00,855
20180607,11964.00,863
20180608,11887.00,841
20180611,11952.00,846
20180612,11986.00,849
20180613,12031.00,853
20180614,11914.00,845
20180615,11976.00,850
20180618,11881.00,846
20180619,11665.00,833
20180620,11813.00,844
20180621,11882.00,856
20180622,11795.00,849
20180625,11705.00,843
20180626,11709.00,843
20180627,11680.00,850
20180628,11680.00,850
20180629,11702.00,851
20180702,11435.00,832
20180703,11420.00,839
20180704,11393.00,838
20180705,11299.00,831
20180706,11435.00,843
20180709,11574.00,853
20180710,11646.00,859
20180711,11505.00,851
20180712,11645.00,867
20180713,11857.00,883
20180717,11911.00,877
20180718,11960.00,885
20180719,11947.00,884
20180720,11912.00,882
20180723,11748.00,878
20180724,11810.00,882
20180725,11862.00,886
20180726,11845.00,885
20180727,11911.00,893
20180730,11824.00,883
20180731,11824.00,884
20180801,11939.00,892
20180802,11811.00,892
20180803,11815.00,893
20180806,11805.00,894
20180807,11884.00,903
20180808,11877.00,899
20180809,11856.00,898
20180810,11698.00,887
20180813,11474.00,876
20180814,11722.00,904
20180815,11645.00,889
20180816,11637.00,897
20180817,11682.00,901
20180820,11639.00,898
20180821,11657.00,911
20180822,11724.00,916
20180823,11756.00,912
20180824,11854.00,918
20180827,11955.00,925
20180828,11965.00,925
20180829,11989.00,926
20180830,12000.00,927
20180831,11997.00,926
20180903,11915.00,919
20180904,11922.00,933
20180905,11844.00,927
20180906,11798.00,927
20180907,11719.00,924
20180910,11737.00,929
20180911,11889.00,945
20180912,11861.00,943
20180913,11969.00,948
20180914,12126.00,954
20180918,12293.00,967
20180919,12425.00,956
20180920,12415.00,952
20180921,12534.00,972
20180925,12557.00,969
20180926,12690.00,991
20180927,12576.00,982
20180928,12740.00,995
20181001,12818.00,994
20181002,12821.00,1006
20181003,12740.00,999
20181004,12653.00,995
20181005,12569.00,994
20181009,12398.00,985
20181010,12421.00,996
20181011,11932.00,961
20181012,11979.00,968
20181015,11750.00,950
20181016,11888.00,974
20181017,12077.00,990
20181018,11957.00,977
20181019,11903.00,974
20181022,11950.00,985
20181023,11610.00,968
20181024,11659.00,974
20181025,11238.00,940
20181026,11202.00,937
20181029,11165.00,934
20181030,11346.00,950
20181031,11578.00,969
20181101,11434.00,957
20181102,11754.00,998
20181105,11569.00,983
20181106,11718.00,999
20181107,11681.00,996
20181108,11888.00,1015
20181109,11764.00,998
20181112,11766.00,1002
20181113,11518.00,981
20181114,11542.00,985
20181115,11528.00,984
20181116,11453.00,982
20181119,11538.00,993
20181120,11398.00,983
20181121,11371.00,994
20181122,11454.00,1001
20181126,11532.00,1008
20181127,11613.00,1014
20181128,11732.00,1024
20181129,11761.00,1018
20181130,11813.00,1023
20181203,11944.00,1034
20181204,11653.00,1024
20181205,11575.00,1018
20181206,11352.00,1006
20181207,11444.00,1019
20181210,11196.00,998
20181211,11172.00,1005
20181212,11431.00,1030
20181213,11536.00,1037
20181214,11295.00,1012
20181217,11368.00,1020
20181218,11165.00,1009
20181219,11092.00,1002
20181220,10751.00,972
20181221,10647.00,978
20181225,10096.00,928
20181226,10244.00,942
20181227,10631.00,978
20181228,10601.00,975
20190104,10358.00,953
20190107,10620.00,993
20190108,10704.00,1003
20190109,10821.00,1013
20190110,10678.00,1000
20190111,10783.00,1015
20190115,10884.00,1024
20190116,10828.00,1023
20190117,10803.00,1022
20190118,10944.00,1036
20190121,10976.00,1039
20190122,10919.00,1047
20190123,10906.00,1046
20190124,10899.00,1045
20190125,11005.00,1055
20190128,10937.00,1048
20190129,10944.00,1049
20190130,10895.00,1045
20190131,11003.00,1055
20190201,11006.00,1055
20190204,11059.00,1076
20190205,11041.00,1075
20190206,11058.00,1079
20190207,10990.00,1072
20190208,10767.00,1053
20190212,11052.00,1084
20190213,11197.00,1103
20190214,11199.00,1100
20190215,11069.00,1086
20190218,11270.00,1110
20190219,11279.00,1113
20190220,11347.00,1119
20190221,11362.00,1134
20190222,11341.00,1132
20190225,11400.00,1138
20190226,11366.00,1134
20190227,11420.00,1140
20190228,11329.00,1131
20190301,11445.00,1142
20190304,11557.00,1170
20190305,11509.00,1159
20190306,11437.00,1154
20190307,11360.00,1149
20190308,11127.00,1130
20190311,11188.00,1141
20190312,11390.00,1167
20190313,11269.00,1151
20190314,11276.00,1153
20190315,11357.00,1161
20190318,11433.00,1174
20190319,11420.00,1174
20190320,11444.00,1176
20190322,11440.00,1190
20190325,11102.00,1155
20190326,11337.00,1182
20190327,11416.00,1188
20190328,11237.00,1169
20190329,11325.00,1181
20190401,11478.00,1197
20190402,11478.00,1206
20190403,11594.00,1218
20190404,11596.00,1218
20190405,11641.00,1222
20190408,11620.00,1221
20190409,11631.00,1223
20190410,11580.00,1218
20190411,11585.00,1223
20190412,11673.00,1233
20190415,11834.00,1254
20190416,11860.00,1257
20190417,11889.00,1270
20190418,11792.00,1261
20190419,11848.00,1269
20190422,11860.00,1270
20190423,11877.00,1283
20190424,11843.00,1282
20190425,11914.00,1289
20190426,11881.00,1281
20190507,11705.00,1262
20190508,11527.00,1265
20190509,11419.00,1262
20190510,11387.00,1259
20190513,11308.00,1258
20190514,11239.00,1252
20190515,11306.00,1261
20190516,11243.00,1260
20190517,11347.00,1273
20190520,11373.00,1277
20190521,11352.00,1290
20190522,11361.00,1291
20190523,11283.00,1282
20190524,11271.00,1283
20190527,11311.00,1288
20190528,11344.00,1292
20190529,11203.00,1274
20190530,11178.00,1273
20190531,10989.00,1252
20190603,10889.00,1242
20190604,10888.00,1261
20190605,11085.00,1285
20190606,11086.00,1287
20190607,11157.00,1295
20190610,11286.00,1310
20190611,11322.00,1319
20190612,11277.00,1314
20190613,11222.00,1308
20190614,11269.00,1314
20190617,11278.00,1316
20190618,11195.00,1314
20190619,11387.00,1339
20190620,11456.00,1344
20190621,11345.00,1346
20190624,11362.00,1347
20190625,11302.00,1341
20190626,11270.00,1338
20190627,11397.00,1354
20190628,11375.00,1350
20190701,11627.00,1380
20190702,11626.00,1390
20190703,11562.00,1376
20190704,11599.00,1381
20190705,11620.00,1383
20190708,11514.00,1372
20190709,11521.00,1374
20190710,11508.00,1372
20190711,11565.00,1386
20190712,11585.00,1388
20190716,11508.00,1379
20190717,11471.00,1383
20190718,11247.00,1357
20190719,11462.00,1390
20190722,11441.00,1384
20190723,11556.00,1415
20190724,11600.00,1419
20190725,11631.00,1422
20190726,11569.00,1411
20190729,11549.00,1411
20190730,11598.00,1418
20190731,11513.00,1407
20190801,11509.00,1407
20190802,11259.00,1397
20190805,11053.00,1383
20190806,10996.00,1388
20190807,10962.00,1395
20190808,11005.00,1402
20190809,11054.00,1409
20190813,10916.00,1384
20190814,11028.00,1413
20190815,10906.00,1397
20190816,10913.00,1407
20190819,10998.00,1419
20190820,11052.00,1427
20190821,11014.00,1429
20190822,11027.00,1431
20190823,11075.00,1437
20190826,10842.00,1405
20190827,10928.00,1435
20190828,10948.00,1425
20190829,10943.00,1425
20190830,11070.00,1442
20190902,11021.00,1430
20190903,11038.00,1453
20190904,11054.00,1455
20190905,11273.00,1484
20190906,11337.00,1488
20190909,11402.00,1491
20190910,11434.00,1496
20190911,11544.00,1516
20190912,11641.00,1527
20190913,11756.00,1539
20190917,11763.00,1539
20190918,11745.00,1544
20190919,11788.00,1550
20190920,11807.00,1552
20190924,11818.00,1568
20190925,11768.00,1558
20190926,11787.00,1560
20190927,11777.00,1556
20190930,11719.00,1550
20191001,11799.00,1562
20191002,11722.00,1571
20191003,11487.00,1540
20191004,11521.00,1549
20191007,11514.00,1548
20191008,11632.00,1569
20191009,11555.00,1556
20191010,11604.00,1563
20191011,11742.00,1588
20191015,11959.00,1616
20191016,12105.00,1631
20191017,12092.00,1626
20191018,12109.00,1627
20191021,12147.00,1635
20191023,12188.00,1657
20191024,12255.00,1665
20191025,12274.00,1668
20191028,12312.00,1672
20191029,12371.00,1674
20191030,12301.00,1661
20191031,12349.00,1670
20191101,12305.00,1661
20191105,12531.00,1715
20191106,12549.00,1707
20191107,12567.00,1608
20191108,12596.00,1610
20191111,12560.00,1605
20191112,12669.00,1626
20191113,12555.00,1610
20191114,12459.00,1598
20191115,12552.00,1611
20191118,12608.00,1624
20191119,12542.00,1618
20191120,12464.00,1610
20191121,12408.00,1627
20191122,12448.00,1635
20191125,12548.00,1645
20191126,12587.00,1641
20191127,12625.00,1643
20191128,12605.00,1650
20191129,12542.00,1639
20191202,12673.00,1657
20191203,12583.00,1668
20191204,12453.00,1652
20191205,12547.00,1667
20191206,12583.00,1672
20191209,12617.00,1677
20191210,12610.00,1678
20191211,12593.00,1682
20191212,12617.00,1686
20191213,12934.00,1728
20191216,12901.00,1712
20191217,12959.00,1623
20191218,12881.00,1617
20191219,12852.00,1614
20191220,12820.00,1609
20191223,12825.00,1629
20191224,12830.00,1630
20191225,12804.00,1626
20191226,12878.00,1641
20191227,12858.00,1632
20191230,12759.00,1619
20200106,12506.00,1588
20200107,12708.00,1646
20200108,12512.00,1616
20200109,12802.00,1661
20200110,12861.00,1663
20200114,12957.00,1677
20200115,12900.00,1670
20200116,12911.00,1681
20200117,12967.00,1688
20200120,12990.00,1691
20200121,12872.00,1696
20200122,12961.00,1709
20200123,12830.00,1692
20200124,12849.00,1599
20200127,12588.00,1566
20200128,12517.00,1559
20200129,12608.00,1576
20200130,12394.00,1551
20200131,12510.00,1567
20200203,12384.00,1551
20200204,12453.00,1583
20200205,12583.00,1601
20200206,12886.00,1633
20200207,12854.00,1626
20200210,12772.00,1615
20200212,12871.00,1635
20200213,12849.00,1632
20200214,12772.00,1623
20200217,12690.00,1612
20200218,12512.00,1601
20200219,12619.00,1630
20200220,12667.00,1631
20200221,12604.00,1634
20200225,12201.00,1587
20200226,12086.00,1576
20200227,11836.00,1554
20200228,11405.00,1500
20200302,11501.00,1514
20200303,11366.00,1520
20200304,11392.00,1524
20200305,11517.00,1542
20200306,11194.00,1504
20200309,10596.00,1427
20200310,10716.00,1446
20200311,10474.00,1420
20200312,9988.00,1356
20200313,9350.00,1279
20200316,9182.00,1258
20200317,9163.00,1264
20200318,9027.00,1246
20200319,8963.00,1239
20200323,9153.00,1265
20200324,9820.00,1384
20200325,10536.00,1482
20200326,10060.00,1414
20200327,10450.00,1469
20200330,10359.00,1456
20200331,10311.00,1448
20200401,9810.00,1376
20200402,9720.00,1390
20200403,9692.00,1387
20200406,10125.00,1449
20200407,10360.00,1486
20200408,10482.00,1501
20200409,10568.00,1514
20200410,10599.00,1517
20200413,10385.00,1491
20200414,10700.00,1539
20200415,10660.00,1533
20200416,10507.00,1519
20200417,10813.00,1564
20200420,10715.00,1535
20200421,10515.00,1527
20200422,10412.00,1517
20200423,10591.00,1543
20200424,10486.00,1522
20200427,10772.00,1568
20200428,10781.00,1570
20200430,10983.00,1600
20200501,10694.00,1551
20200507,10727.00,1587
20200508,10991.00,1634
20200511,11129.00,1648
20200512,11085.00,1657
20200513,11058.00,1653
20200514,10829.00,1619
20200515,10919.00,1633
20200518,10984.00,1649
20200519,11150.00,1678
20200520,11213.00,1681
20200521,11209.00,1711
20200522,11102.00,1694
20200525,11309.00,1626
20200526,11586.00,1657
20200527,11676.00,1665
20200528,11953.00,1724
20200529,11902.00,1699
20200601,12015.00,1611
20200602,12158.00,1663
20200603,12323.00,1664
20200604,12361.00,1680
20200605,12444.00,1693
20200608,12615.00,1729
20200609,12568.00,1700
20200610,12575.00,1621
20200611,12221.00,1566
20200612,12129.00,1553
20200615,11707.00,1494
20200616,12273.00,1582
20200617,12237.00,1571
20200618,12157.00,1563
20200619,12244.00,1575
20200622,12205.00,1570
20200623,12280.00,1601
20200624,12263.00,1589
20200625,12118.00,1570
20200626,12248.00,1590
20200629,11997.00,1552
20200630,12148.00,1572
20200701,12056.00,1556
20200702,12077.00,1587
20200703,12157.00,1598
20200706,12373.00,1625
20200707,12318.00,1618
20200708,12223.00,1607
20200709,12275.00,1617
20200710,12151.00,1600
20200713,12410.00,1643
20200714,12309.00,1627
20200715,12507.00,1661
20200716,12409.00,1642
20200717,12368.00,1645
20200720,12373.00,1651
20200721,12468.00,1688
20200722,12401.00,1669
20200727,12378.00,1678
20200728,12343.00,1674
20200729,12200.00,1657
20200730,12174.00,1665
20200731,11840.00,1620
20200803,12082.00,1659
20200804,12306.00,1716
20200805,12270.00,1702
20200806,12213.00,1601
20200807,12170.00,1596
20200811,12393.00,1626
20200812,12454.00,1641
20200813,12663.00,1658
20200814,12689.00,1653
20200817,12582.00,1629
20200818,12560.00,1642
20200819,12593.00,1647
20200820,12466.00,1630
20200821,12485.00,1657
20200824,12524.00,1658
20200825,12696.00,1682
20200826,12680.00,1668
20200827,12644.00,1660
20200828,12472.00,1642
20200831,12613.00,1664
20200901,12613.00,1659
20200902,12677.00,1696
20200903,12789.00,1708
20200904,12642.00,1695
20200907,12580.00,1647
20200908,12681.00,1676
20200909,12543.00,1651
20200910,12663.00,1679
20200911,12749.00,1688
20200914,12842.00,1696
20200915,12785.00,1678
20200916,12791.00,1689
20200917,12700.00,1678
20200918,12732.00,1684
20200923,12722.00,1683
20200924,12579.00,1689
20200925,12641.00,1713
20200928,12803.00,1731
20200929,12903.00,1727
20200930,12712.00,1699
20201001,12728.00,1707
20201002,12620.00,1692
20201005,12776.00,1745
20201006,12843.00,1758
20201007,12839.00,1750
20201008,12961.00,1767
20201009,12942.00,1758
20201012,12909.00,1753
20201013,12937.00,1768
20201014,12947.00,1769
20201015,12885.00,1761
20201016,12833.00,1763
20201019,12974.00,1784
20201020,12913.00,1774
20201021,12960.00,1804
20201022,12872.00,1790
20201023,12886.00,1793
20201026,12876.00,1791
20201027,12874.00,1791
20201028,12837.00,1787
20201029,12788.00,1789
20201030,12582.00,1763
20201102,12769.00,1792
20201104,12996.00,1853
20201105,13215.00,1880
20201106,13336.00,1888
20201109,13618.00,1931
20201110,13659.00,1931
20201111,13905.00,1969
20201112,13963.00,1975
20201113,13907.00,1960
20201116,14211.00,2004
20201117,14262.00,2017
20201118,14096.00,1995
20201119,14034.00,1986
20201120,13993.00,1980
20201124,14350.00,2070
20201125,14425.00,2061
20201126,14550.00,2073
20201127,14600.00,2075
20201130,14490.00,2056
20201201,14682.00,2083
20201202,14694.00,2124
20201203,14698.00,2124
20201204,14665.00,2119
20201207,14551.00,2102
20201208,14507.00,2112
20201209,14703.00,2149
20201210,14651.00,2129
20201211,14594.00,2130
20201214,14652.00,2139
20201215,14625.00,2135
20201216,14658.00,2149
20201217,14693.00,2145
20201218,14671.00,2142
20201221,14637.00,2139
20201222,14481.00,2141
20201223,14537.00,2157
20201224,14620.00,2164
20201225,14616.00,2158
20201228,14712.00,2175
20201229,15129.00,2223
20201230,15060.00,2212
20210104,14969.00,2200
20210105,14887.00,2221
20210106,14839.00,2219
20210107,15076.00,2253
20210108,15440.00,2303
20210112,15458.00,2291
20210113,15614.00,2324
20210114,15766.00,2345
20210115,15638.00,2324
20210118,15487.00,2311
20210119,15717.00,2349
20210120,15644.00,2338
20210121,15772.00,2384
20210122,15709.00,2380
20210125,15806.00,2395
20210126,15659.00,2386
20210127,15711.00,2395
20210128,15444.00,2352
20210129,15161.00,2314
20210201,15421.00,2361
20210202,15560.00,2411
20210203,15715.00,2425
20210204,15547.00,2397
20210205,15791.00,2434
20210208,16127.00,2484
20210209,16185.00,2464
20210210,16191.00,2462
20210212,16168.00,2467
20210215,16505.00,2520
20210216,16737.00,2576
20210217,16636.00,2543
20210218,16584.00,2536
20210219,16470.00,2520
20210222,16544.00,2543
20210224,16270.00,2512
20210225,16556.00,2576
20210226,15947.00,2463
20210301,16257.00,2528
20210302,16150.00,2539
20210303,16222.00,2552
20210304,15882.00,2496
20210305,15815.00,2490
20210308,15773.00,2505
20210309,15930.00,2533
20210310,15924.00,2529
20210311,16028.00,2550
20210312,16311.00,2594
20210315,16325.00,2573
20210316,16413.00,2594
20210317,16410.00,2594
20210318,16580.00,2642
20210319,16333.00,2586
20210322,16000.00,2555
20210323,15910.00,2590
20210324,15581.00,2538
20210325,15773.00,2583
20210326,16022.00,2624
20210329,16107.00,2624
20210330,16252.00,2643
20210331,16106.00,2624
20210401,16222.00,2642
20210402,16485.00,2718
20210405,16604.00,2697
20210406,16390.00,2684
20210407,16406.00,2700
20210408,16391.00,2698
20210409,16428.00,2705
20210412,16307.00,2685
20210413,16421.00,2717
20210414,16344.00,2702
20210415,16354.00,2704
20210416,16386.00,2721
20210419,16381.00,2721
20210420,16063.00,2670
20210421,15737.00,2649
20210422,16097.00,2719
20210423,16007.00,2692
20210426,16079.00,2710
20210427,15998.00,2690
20210428,16033.00,2698
20210430,15912.00,2673
20210506,16186.00,2726
20210507,16208.00,2772
20210510,16299.00,2781
20210511,15803.00,2709
20210512,15537.00,2671
20210513,15158.00,2607
20210514,15498.00,2670
20210517,15355.00,2645
20210518,15692.00,2721
20210519,15473.00,2683
20210520,15512.00,2695
20210521,15640.00,2747
20210524,15657.00,2747
20210525,15772.00,2760
20210526,15805.00,2763
20210527,15759.00,2751
20210528,16088.00,2810
20210531,15949.00,2782
20210601,15899.00,2778
20210602,15977.00,2836
20210603,16043.00,2843
20210604,15976.00,2835
20210607,16019.00,2845
20210608,16004.00,2849
20210609,15931.00,2837
20210610,15987.00,2848
20210611,15979.00,2857
20210614,16100.00,2880
20210615,16254.00,2895
20210616,16170.00,2892
20210617,16022.00,2869
20210618,15990.00,2878
20210621,15469.00,2789
20210622,15935.00,2919
20210623,15936.00,2907
20210624,15935.00,2907
20210625,16045.00,2927
20210628,16028.00,2919
20210629,15915.00,2889
20210630,15907.00,2894
20210701,15854.00,2884
20210702,15901.00,2938
20210705,15797.00,2917
20210706,15822.00,2930
20210707,15674.00,2903
20210708,15538.00,2882
20210709,15465.00,2871
20210712,15776.00,2934
20210713,15858.00,2953
20210714,15797.00,2941
20210715,15617.00,2906
20210716,15463.00,2898
20210719,15272.00,2868
20210720,15134.00,2851
20210721,15220.00,2902
20210726,15375.00,2931
20210727,15443.00,2938
20210728,15230.00,2897
20210729,15350.00,2922
20210730,15079.00,2869
20210802,15341.00,2920
20210803,15261.00,2945
20210804,15238.00,2942
20210805,15311.00,2957
20210806,15370.00,2973
20210810,15400.00,2979
20210811,15506.00,3014
20210812,15476.00,3006
20210813,15456.00,3003
20210816,15197.00,2953
20210817,15138.00,2958
20210818,15239.00,2974
20210819,15058.00,2939
20210820,14923.00,2926
20210823,15196.00,3019
20210824,15324.00,3033
20210825,15322.00,3025
20210826,15318.00,3027
20210827,15272.00,3017
20210830,15349.00,3032
20210831,15542.00,3063
20210901,15731.00,3098
20210902,15760.00,3138
20210903,16102.00,3207
20210906,16408.00,3265
20210907,16531.00,3285
20210908,16677.00,3304
20210909,16582.00,3250
20210910,16787.00,3324
20210913,16829.00,3315
20210914,16942.00,3334
20210915,16862.00,3306
20210916,16760.00,3300
20210917,16855.00,3325
20210921,16494.00,3250
20210922,16377.00,3260
20210924,16712.00,3337
20210927,16699.00,3325
20210928,16653.00,3317
20210929,16426.00,3277
20210930,16358.00,3270
20211001,16006.00,3212
20211004,15781.00,3225
20211005,15455.00,3168
20211006,15285.00,3154
20211007,15399.00,3180
20211008,15595.00,3221
20211011,15836.00,3266
20211012,15678.00,3242
20211013,15636.00,3234
20211014,15865.00,3281
20211015,16154.00,3341
20211018,16119.00,3340
20211019,16234.00,3368
20211020,16256.00,3362
20211021,15951.00,3335
20211022,16007.00,3347
20211025,15891.00,3324
20211026,16172.00,3384
20211027,16161.00,3378
20211028,16008.00,3344
20211029,16046.00,3352
20211101,16466.00,3441
20211102,16400.00,3457
20211104,16555.00,3491
20211105,16452.00,3466
20211108,16393.00,3462
20211109,16272.00,3439
20211110,16172.00,3424
20211111,16268.00,3461
20211112,16450.00,3497
20211115,16541.00,3505
20211116,16558.00,3519
20211117,16494.00,3508
20211118,16443.00,3500
20211119,16527.00,3526
20211122,16542.00,3524
20211124,16282.00,3507
20211125,16389.00,3534
20211126,15975.00,3445
20211129,15716.00,3393
20211130,15431.00,3336
20211201,15558.00,3372
20211202,15426.00,3394
20211203,15586.00,3432
20211206,15512.00,3414
20211207,15830.00,3494
20211208,16054.00,3524
20211209,15978.00,3507
20211210,15817.00,3474
20211213,15933.00,3516
20211214,15812.00,3492
20211215,15832.00,3497
20211216,16166.00,3585
20211217,15878.00,3517
20211220,15540.00,3445
20211221,15863.00,3568
20211222,15882.00,3560
20211223,16014.00,3589
20211224,16006.00,3585
20211227,15950.00,3572